Binghamton, NY

5:02 AM EDT on September 24, 2017 (GMT -0400)
Binghamton Regional-Link

Weather History for KBGM - May, 2013

Change the Weather History Date:

Thursday, May 9, 2013

  Actual Average Record
Temperature  
Mean Temperature 59 °F 54 °F  
Max Temperature 68 °F 64 °F 87 °F (2000)
Min Temperature 49 °F 44 °F 27 °F (1966)
Degree Days  
Heating Degree Days 6 12  
Month to date heating degree days 52 117  
Since 1 July heating degree days 6626 6916  
Cooling Degree Days 0 0  
Month to date cooling degree days 0 0  
Year to date cooling degree days 0 4  
Growing Degree Days 8 (Base 50)    
Moisture  
Dew Point 49 °F    
Average Humidity 72    
Maximum Humidity 96    
Minimum Humidity 48    
Precipitation  
Precipitation 0.00 in 0.11 in 0.82 in (1968)
Month to date precipitation 0.67 0.98  
Year to date precipitation 10.46 12.16  
Snow  
Snow 0.00 in 0.00 in 3.40 in (1966)
Month to date snowfall 0.0 0.1  
Since 1 July snowfall 69.1 83.4  
Snow Depth 0.00 in    
Sea Level Pressure  
Sea Level Pressure 29.93 in    
Wind  
Wind Speed 6 mph (South)    
Max Wind Speed 13 mph    
Max Gust Speed 15 mph    
Visibility 7 miles    
Events      
T = Trace of Precipitation, MM = Missing Value Source: NWS Daily Summary

Daily Weather History Graph

Daily Weather History Graph

Search for Another Location

Airport or City:

Trip Planner

Search our weather history database for the weather conditions in past years. The results will help you decide how hot, cold, wet, or windy it might be!

Date:

Astronomy

May. 09, 2013 Rise Set
Actual Time 5:49 AM EDT 8:12 PM EDT
Civil Twilight 5:17 AM EDT 8:43 PM EDT
Nautical Twilight 4:38 AM EDT 9:22 PM EDT
Astronomical Twilight 3:55 AM EDT 10:06 PM EDT
Moon 5:32 AM EDT (5/9) 8:05 PM EDT (5/9)
Length of Visible Light 15h 26m
Length of Day
14h 23m
Waning Crescent, 0% of the Moon is Illuminated
May 9
Waning Crescent
May 9
New
May 18
First Quarter
May 25
Full
May 31
Last Quarter

Hourly Weather History & Observations

Time (EDT) Temp. Dew Point Humidity Pressure Visibility Wind Dir Wind Speed Gust Speed Precip Events Conditions
12:53 AM 52.0 °F 50.0 °F 93% 29.95 in 10.0 mi SE 5.8 mph - 0.01 in   Mostly Cloudy
1:53 AM 51.1 °F 48.9 °F 92% 29.94 in 10.0 mi SSE 8.1 mph - N/A   Partly Cloudy
2:53 AM 50.0 °F 48.0 °F 93% 29.94 in 10.0 mi SSE 6.9 mph - N/A   Clear
3:53 AM 50.0 °F 48.0 °F 93% 29.93 in 10.0 mi SSE 5.8 mph - N/A   Scattered Clouds
4:38 AM 48.2 °F 46.4 °F 93% 29.92 in 5.0 mi SE 5.8 mph - N/A   Scattered Clouds
4:43 AM 48.2 °F 46.4 °F 93% 29.92 in 1.8 mi SE 5.8 mph - N/A   Scattered Clouds
4:51 AM 48.2 °F 46.4 °F 93% 29.92 in 1.0 mi SE 6.9 mph - N/A   Mist
4:53 AM 48.9 °F 46.9 °F 93% 29.93 in 0.8 mi SE 6.9 mph - N/A   Mist
5:03 AM 48.2 °F 48.2 °F 100% 29.92 in 1.2 mi SSE 5.8 mph - N/A   Scattered Clouds
5:06 AM 48.2 °F 48.2 °F 100% 29.92 in 3.0 mi SSE 6.9 mph - N/A   Scattered Clouds
5:11 AM 48.2 °F 48.2 °F 100% 29.92 in 2.0 mi SSE 6.9 mph - N/A   Mostly Cloudy
5:19 AM 48.2 °F 48.2 °F 100% 29.92 in 1.5 mi SE 6.9 mph - N/A   Mostly Cloudy
5:38 AM 50.0 °F 48.2 °F 94% 29.92 in 3.0 mi SSE 8.1 mph - N/A   Mostly Cloudy
5:53 AM 50.0 °F 48.0 °F 93% 29.93 in 4.0 mi SE 6.9 mph - N/A   Partly Cloudy
6:06 AM 50.0 °F 48.2 °F 94% 29.93 in 2.0 mi SSE 6.9 mph - N/A   Scattered Clouds
6:23 AM 50.0 °F 48.2 °F 94% 29.93 in 3.0 mi SSE 8.1 mph - N/A   Mostly Cloudy
6:53 AM 50.0 °F 48.9 °F 96% 29.94 in 4.0 mi SSE 8.1 mph - N/A   Scattered Clouds
7:09 AM 51.8 °F 48.2 °F 88% 29.93 in 3.0 mi SSE 6.9 mph - N/A   Scattered Clouds
7:53 AM 52.0 °F 50.0 °F 93% 29.94 in 3.0 mi SSE 4.6 mph - N/A   Mostly Cloudy
8:16 AM 53.6 °F 51.8 °F 94% 29.94 in 4.0 mi Calm Calm - N/A   Overcast
8:30 AM 53.6 °F 51.8 °F 94% 29.94 in 5.0 mi South 3.5 mph - N/A   Mostly Cloudy
8:53 AM 55.0 °F 52.0 °F 89% 29.94 in 9.0 mi South 3.5 mph - N/A   Mostly Cloudy
9:53 AM 55.9 °F 51.1 °F 84% 29.94 in 10.0 mi SW 3.5 mph - N/A   Clear
10:38 AM 57.2 °F 51.8 °F 82% 29.94 in 10.0 mi SW 4.6 mph - N/A   Mostly Cloudy
10:53 AM 57.9 °F 52.0 °F 81% 29.95 in 10.0 mi WSW 6.9 mph - N/A   Overcast
11:03 AM 57.2 °F 51.8 °F 82% 29.95 in 10.0 mi West 6.9 mph - N/A   Overcast
11:53 AM 60.1 °F 51.1 °F 72% 29.94 in 10.0 mi West 8.1 mph - N/A   Mostly Cloudy
12:53 PM 60.1 °F 50.0 °F 69% 29.94 in 10.0 mi WSW 6.9 mph - N/A   Scattered Clouds
1:53 PM 61.0 °F 48.9 °F 64% 29.93 in 10.0 mi SW 4.6 mph - N/A   Partly Cloudy
2:53 PM 64.0 °F 48.9 °F 58% 29.91 in 10.0 mi SW 5.8 mph - N/A   Mostly Cloudy
3:53 PM 66.9 °F 50.0 °F 54% 29.90 in 10.0 mi WSW 6.9 mph - N/A   Mostly Cloudy
4:53 PM 66.0 °F 46.0 °F 48% 29.90 in 10.0 mi Calm Calm - N/A   Clear
5:53 PM 66.9 °F 46.9 °F 49% 29.90 in 10.0 mi West 10.4 mph - N/A   Partly Cloudy
6:53 PM 62.1 °F 50.0 °F 65% 29.91 in 10.0 mi WNW 4.6 mph - N/A   Scattered Clouds
7:53 PM 62.1 °F 50.0 °F 65% 29.93 in 10.0 mi NW 3.5 mph - N/A   Scattered Clouds
8:53 PM 59.0 °F 50.0 °F 72% 29.94 in 10.0 mi WNW 3.5 mph - N/A   Clear
9:53 PM 59.0 °F 51.1 °F 75% 29.97 in 10.0 mi WNW 3.5 mph - N/A   Clear
10:53 PM 55.0 °F 51.1 °F 86% 29.97 in 10.0 mi WSW 4.6 mph - N/A   Clear
11:53 PM 55.0 °F 51.1 °F 86% 29.97 in 10.0 mi WSW 3.5 mph - N/A   Clear